THOR ABLESTAR DEB, 467

Orbit data source: Space-Track

THOR ABLESTAR DEB, 467 is space debris in LEO originally from a launch on Thu, 29 Jun 1961 UTC launched from the Air Force Eastern Test Range (AFETR). Debris objects in space refer to the collection of defunct objects orbiting the Earth. Examples of debris include non-operational satellites, rocket bodies, and fragments generated from explosions, collisions, or faulty payload assembly.

Loading next visibility...
Identifier
467, 1961-015FD
Orbit
LEO
Last TLE update
18 hours ago
Origin
Manufacturer
Unknown
Mission
Spacecraft
Bus & Motor
Unknown
Mass
Unknown
Launch date (UTC)
1961-06-29 (64 years ago)
Launch vehicle
Unknown
Launch site
Air Force Eastern Test Range (AFETR)
Object type
Payload
Rocket body
Debris
Shape & HBR
Unknown
Radar Cross Section
Small (<0.1 m²)

Expand to show TLE details & history

TLE from 18 hours ago
0 THOR ABLESTAR DEB
1 00467U 61015FD  25182.40649973  .00001166  00000-0  14626-2 0  9995
2 00467  66.5565 185.1608 0241595 179.0333 181.1244 13.56090174233356
Epoch: 2025-07-01T09:45Z
TLE epoch observation values (Epoch: 2025-07-01T09:45:21.576Z)
Latitude
-0.00006°
Longitude
119.11847°
Altitude
1,231.404 km
Speed
7.151 km/s
True Right ascension
12h 20m 38s
True Declination
0° 00' 00"
Sunlit
Object was in daylight at epoch
Visualization orbit readout
Latitude
58.67687°
Longitude
-107.79342°
Altitude
985.211 km
Speed
7.402 km/s
Apparent Right ascension
00h 59m 09s
Apparent Declination
20° 39' 39"
Sunlit
Object is in daylight
Visualization observer readout
Local Sidereal Time
15:42:19
Azimuth
40.129° NE
Elevation
-18.478°
Doppler factor
1
Orbital elements
Apogee altitude
1,227.803 km
Perigee altitude
868.961 km
Semi-major axis
7,426.519 km
Eccentricity
0.02416
Inclination
66.5565°
RAAN
185.1608°
Arg. of periapsis
179.0333°
True anomaly
Unknown
Mean anomaly
181.1244°
Eccentric anomaly
Unknown
Mean motion
3.39129 °/min
Orbital period
106.15 mins
BSTAR
0.0014626
Loading maneuver chart data...
Loading SW <> Apogee altitude chart data...

THOR ABLESTAR DEB Visibility forecast

Observer location: undefined°, undefined°

Span
Click to sort rows by Start time (UTC) header in descending order
Start Az.
Max El. time (UTC)
Max El. Az.
Max El.
End time (UTC)
End Az.
8 mins2025-07-02 09:18:58.961Z358.939° N2025-07-02 09:22:58.961Z41.972° NE19.252°2025-07-02 09:26:58.961Z86.127° E
10 mins2025-07-02 11:07:58.961Z327.042° NNW2025-07-02 11:12:58.961Z236.512° WSW44.309°2025-07-02 11:17:58.961Z158.854° S
11 mins2025-07-03 00:48:58.961Z172.251° S2025-07-03 00:53:58.961Z114.332° SE34.488°2025-07-03 00:59:58.961Z45.38° ENE
12 mins2025-07-03 02:37:58.961Z244.38° WSW2025-07-03 02:42:58.961Z297.815° NW33.328°2025-07-03 02:49:58.961Z17.023° NNE
|